Flag for Micronesia Weather past 2 weeks in Colonia, Yap, Micronesia

Now
83 °F

Overcast.


Feels Like: 91 °F
Forecast: 82 / 87 °F
Wind: 13 mph from Southwest

Location: Yap Island

Current Time: Jul 7, 2015 at 1:51:59 AM

Latest Report: Jul 7, 2015 at 12:52 AM


Visibility: 12 mi

Pressure: 29.71 "Hg

Humidity: 81%

Dew point: 76 °F

Location of ColoniaLocation

Historic Weather in Colonia — Graph

°F

Colonia temperature yesterday

Maximum temperature yesterday: 84 °F (at 2:52 PM)
Minimum temperature yesterday: 82 °F (at 9:55 AM)
Average temperature yesterday: 83 °F

Past Weeks' High & Low Weather Summary

 TemperatureHumidityPressure
High88 °F (Jun 22, 11:54 AM)100% (Jun 28, 5:58 AM)29.93 "Hg (Jun 28, 5:58 AM)
Low76 °F (Jun 28, 3:54 AM)70% (Jun 22, 11:54 AM)29.68 "Hg (Jul 6, 3:53 PM)
Average81 °F85%29.80 "Hg
* Reported Jun 21 11:51 PM — Jul 6 11:54 PM, Colonia, Weather by CustomWeather, © 2015

Note: Actual official high and low records may vary slightly from our data, if they occured in-between our weather recording intervals... More about our weather records

Advertising

Colonia weather history for previous 24 hours

 ConditionsComfort  
Time TempWeatherWind HumidityBarometerVisibility
11:54 PM
Mon, Jul 6
83 °FOvercast.14 mph80%29.73 "Hg12 mi
10:50 PM83 °FOvercast.12 mph82%29.73 "Hg12 mi
9:52 PM83 °FOvercast.10 mph79%29.73 "Hg12 mi
8:52 PM83 °FOvercast.14 mph80%29.71 "Hg12 mi
7:54 PM83 °FCloudy.12 mph80%29.70 "Hg12 mi
6:50 PM83 °FCloudy.12 mph80%29.70 "Hg12 mi
5:50 PM83 °FMostly cloudy.12 mph80%29.70 "Hg12 mi
4:54 PM83 °FOvercast.14 mph78%29.69 "Hg12 mi
3:53 PM83 °FOvercast.12 mph81%29.68 "Hg12 mi
2:52 PM84 °FOvercast.14 mph77%29.70 "Hg12 mi
1:53 PM84 °FOvercast.14 mph78%29.72 "Hg12 mi
12:51 PM83 °FOvercast.14 mph80%29.72 "Hg12 mi
11:50 AM84 °FOvercast.14 mph77%29.73 "Hg12 mi
10:51 AM83 °FOvercast.17 mph79%29.75 "Hg12 mi
9:55 AM82 °FOvercast.13 mph82%29.74 "Hg12 mi
8:54 AM82 °FOvercast.15 mph81%29.75 "Hg12 mi
7:51 AM83 °FOvercast.14 mph80%29.73 "Hg12 mi
6:55 AM83 °FMostly cloudy.13 mph81%29.71 "Hg12 mi
5:51 AM83 °FMostly cloudy.15 mph77%29.71 "Hg12 mi
4:53 AM83 °FMostly cloudy.16 mph78%29.70 "Hg12 mi
3:52 AM82 °FMostly cloudy.13 mph80%29.69 "Hg12 mi
2:50 AM82 °FMostly cloudy.15 mph80%29.70 "Hg12 mi
1:51 AM83 °FMostly cloudy.14 mph80%29.70 "Hg12 mi
Weather by CustomWeather, © 2015

See weather overviewHow to use our weather pages